Location: Newark
(13.6797°N, 8.5297°E)
Time: 04:26:11
(UTC+00:00)

A-11 Canister half - Pass Details

Date: 26 January 2020
Orbit: 1517 x 1683 km, 47.2° (Epoch: 18 February)

Event Time Altitude Azimuth Distance (km) Brightness Sun altitude
Rises 19:42:50 0° 211° (SSW) 4,868 12.2 -33.5°
Reaches altitude 10° 19:46:04 10° 208° (SSW) 3,862 11.5 -34.2°
Enters shadow 19:54:33 58° 158° (SSE) 1,817 9.1 -36.2°
Maximum altitude 19:55:43 61° 129° (SE) 1,763 - -36.5°
Drops below altitude 10° 20:05:00 10° 51° (NE) 3,734 - -38.7°
Sets 20:08:03 0° 48° (NE) 4,700 - -39.4°
